Location: Trout Lake
(45.9980°N, 121.5270°W)
Time: 20:17:51
(UTC-08:00)

Cosmos 2263 Rocket - Pass Details

Date: 06 December 2023
Orbit: 821 x 849 km, 71.0° (Epoch: 22 February)

Event Time Altitude Azimuth Distance (km) Brightness Sun altitude
Rises 18:04:48 0° 240° (WSW) 3,345 6.8 -17.3°
Reaches altitude 10° 18:07:34 10° 252° (WSW) 2,417 5.9 -17.7°
Maximum altitude 18:12:16 28° 310° (NW) 1,515 3.9 -18.5°
Drops below altitude 10° 18:17:01 10° 9° (N) 2,437 4.4 -19.3°
Enters shadow 18:17:53 - 13° (NNE) 2,718 4.6 -19.5°
